Overview Statistics Trail Chart Weather Telemetry Raw packets
 

This is the latest recevied weather packets stored in our database for station/object KB4MLW-13. If no packets are shown the sender has not sent any weather packets the latest 10 day(s).

<< 58 59 60 61 62 63 64 >>
Time Temp. Humidity Pressure Rain* Wind** Luminosity Snow
1788285299 33.33° C 61% 1002.2 hPa 0 mm - - -
1788285239 33.33° C 62% 1002.2 hPa 0 mm - - -
1788285179 33.33° C 62% 1002.1 hPa 0 mm - - -
1788285119 33.33° C 63% 1002.3 hPa 0 mm - - -
1788285058 33.33° C 61% 1002.2 hPa 0 mm - - -
1788284968 33.33° C 65% 1002.1 hPa 0 mm - - -
1788284908 33.33° C 61% 1002.1 hPa 0 mm - - -
1788284819 33.33° C 60% 1002.2 hPa 0 mm - - -
1788284729 33.33° C 60% 1002.3 hPa 0 mm - - -
1788284668 33.33° C 61% 1002.3 hPa 0 mm - - -
1788284578 33.33° C 63% 1002.3 hPa 0 mm - - -
1788284489 33.33° C 60% 1002.2 hPa 0 mm - - -
1788284428 33.33° C 60% 1002.1 hPa 0 mm - - -
1788284368 33.33° C 60% 1002.2 hPa 0 mm - - -
1788284279 33.33° C 62% 1002.3 hPa 0 mm - - -
1788284219 32.78° C 62% 1002.3 hPa 0 mm - - -
1788284158 32.78° C 61% 1002.3 hPa 0 mm - - -
1788284098 32.78° C 63% 1002.3 hPa 0 mm - - -
1788284038 32.78° C 62% 1002.4 hPa 0 mm - - -
1788283950 33.33° C 62% 1002.5 hPa 0 mm - - -
1788283858 33.33° C 62% 1002.2 hPa 0 mm - - -
1788283798 33.33° C 62% 1002.3 hPa 0 mm - - -
1788283738 33.33° C 61% 1002.6 hPa 0 mm - - -
1788283648 33.33° C 62% 1002.5 hPa 0 mm - - -
1788283594 33.33° C 62% 1002.3 hPa 0 mm - - -

* Rain latest hour (hover to see other rain measurements)
** Current wind speed in m/s (hover to see current wind gust speed)